Terminal Aerodrome Forecast
Issued by NWS Pueblo, CO

Home | Current Version | Previous Version | Text Only | Print | Product List | Glossary On
Versions: 1 2 3 4 5 6 7 8 9 10 11 12 13 14 15 16 17 18 19 20 21 22 23 24 25 26 27 28 29 30 31 32 33 34 35 36 37 38 39 40 41 42 43 44 45 46 47 48 49 50
000
FTUS45 KPUB 241724
TAFCOS
TAF
KCOS 241724Z 2418/2518 18008KT P6SM VCTS BKN050CB BKN080
      TEMPO 2419/2423 VRB20G30KT -TSRA BKN040CB
     FM242300 13008KT P6SM VCTS BKN050CB BKN080
      TEMPO 2423/2502 VRB20G30KT -TSRA BKN040CB
     FM250400 35007KT P6SM SCT080 BKN200
     FM251600 15008KT P6SM SCT050 BKN080=

USA.gov is the U.S. government's official web portal to all federal, state and local government web resources and services.